GW5800 Weather Reports


time (UTC)temp
C
wind
direction
speed
KPH
gust
KPH
rain 1hr
cm
rain 24hr
cm
rain mn
cm
humidity
%
barometer
mb
20260504014303 10 123 4.8 4.8 0.00 0.00 0.00 56 1013.1
20260504013801 10 109 3.2 4.8 0.00 0.00 0.00 54 1012.9
20260504013259 10 99 3.2 4.8 0.00 0.00 0.00 55 1013.1
20260504012754 10 145 3.2 3.2 0.00 0.00 0.00 54 1012.9
20260504012253 11 127 4.8 4.8 0.00 0.00 0.00 53 1012.8
20260504011749 11 125 3.2 4.8 0.00 0.00 0.00 52 1012.8
20260504011246 11 124 3.2 3.2 0.00 0.00 0.00 52 1013.0
20260504010742 11 129 3.2 3.2 0.00 0.00 0.00 52 1012.8
20260504010238 11 145 3.2 4.8 0.00 0.00 0.00 51 1012.8
20260504005735 11 140 1.6 4.8 0.00 0.00 0.00 49 1012.9
20260504005232 12 137 1.6 3.2 0.00 0.00 0.00 47 1012.9
20260504004729 12 150 0.0 4.8 0.00 0.00 0.00 48 1012.7
20260504004226 12 136 3.2 4.8 0.00 0.00 0.00 47 1012.8
20260504003723 12 134 1.6 3.2 0.00 0.00 0.00 45 1012.8
20260504003220 13 161 1.6 4.8 0.00 0.00 0.00 44 1012.9
20260504002717 13 169 3.2 16.1 0.00 0.00 0.00 43 1013.0
20260504002214 13 133 3.2 11.3 0.00 0.00 0.00 43 1012.9
20260504001712 13 257 6.4 6.4 0.00 0.00 0.00 42 1012.8
20260504001208 13 218 1.6 4.8 0.00 0.00 0.00 44 1012.9
20260504000705 13 201 0.0 4.8 0.00 0.00 0.00 43 1012.7
20260504000204 13 140 9.7 25.7 0.00 0.00 0.00 41 1012.9
20260503235700 13 116 4.8 6.4 0.00 0.00 0.00 42 1012.8
20260503235157 13 62 1.6 3.2 0.00 0.00 0.00 44 1012.8
20260503234655 13 185 3.2 4.8 0.00 0.00 0.00 42 1012.9
20260503234153 13 208 4.8 12.9 0.00 0.00 0.00 43 1012.8
20260503233649 13 174 3.2 4.8 0.00 0.00 0.00 42 1012.9
20260503233145 13 192 0.0 8.0 0.00 0.00 0.00 43 1013.0
20260503232642 14 120 4.8 9.7 0.00 0.00 0.00 41 1013.0
20260503232139 14 216 1.6 4.8 0.00 0.00 0.00 40 1013.0
20260503231638 14 218 3.2 11.3 0.00 0.00 0.00 40 1013.0
20260503231133 14 263 3.2 9.7 0.00 0.00 0.00 40 1013.0
20260503230630 14 180 3.2 4.8 0.00 0.00 0.00 42 1013.1
20260503230128 14 272 6.4 9.7 0.00 0.00 0.00 39 1013.1
20260503225625 14 123 1.6 8.0 0.00 0.00 0.00 40 1013.0
20260503225124 14 248 6.4 9.7 0.00 0.00 0.00 40 1013.1
20260503224622 14 294 3.2 14.5 0.00 0.00 0.00 41 1013.3
20260503224120 14 165 8.0 8.0 0.00 0.00 0.00 41 1013.2
20260503223618 14 211 8.0 12.9 0.00 0.00 0.00 41 1013.1
20260503223113 15 131 3.2 9.7 0.00 0.00 0.00 39 1013.4
20260503222611 15 132 1.6 14.5 0.00 0.00 0.00 40 1013.0
20260503222109 15 276 6.4 9.7 0.00 0.00 0.00 39 1013.1
20260503221607 15 223 6.4 14.5 0.00 0.00 0.00 40 1013.2
20260503221104 15 189 3.2 9.7 0.00 0.00 0.00 39 1013.3
20260503220600 15 179 0.0 12.9 0.00 0.00 0.00 39 1013.2
20260503220058 15 177 1.6 8.0 0.00 0.00 0.00 40 1013.1
20260503215555 15 266 6.4 12.9 0.00 0.00 0.00 40 1013.4
20260503215051 15 266 11.3 11.3 0.00 0.00 0.00 39 1013.2
20260503214549 15 260 4.8 11.3 0.00 0.00 0.00 38 1013.2
20260503214046 15 235 8.0 9.7 0.00 0.00 0.00 39 1013.1
20260503213544 15 247 8.0 12.9 0.00 0.00 0.00 37 1013.2
20260503213041 15 238 6.4 8.0 0.00 0.00 0.00 38 1013.0
20260503212538 15 261 3.2 9.7 0.00 0.00 0.00 40 1013.2
20260503212036 15 186 3.2 9.7 0.00 0.00 0.00 39 1013.1
20260503211532 16 250 6.4 9.7 0.00 0.00 0.00 38 1012.9
20260503211028 15 237 9.7 22.5 0.00 0.00 0.00 38 1013.1
20260503210525 16 186 3.2 17.7 0.00 0.00 0.00 37 1012.9
20260503210021 16 241 8.0 11.3 0.00 0.00 0.00 38 1013.1
20260503205518 16 232 11.3 14.5 0.00 0.00 0.00 36 1013.1
20260503205014 15 154 9.7 12.9 0.00 0.00 0.00 37 1013.1
20260503204511 15 131 9.7 9.7 0.00 0.00 0.00 38 1013.1
20260503204008 15 210 3.2 12.9 0.00 0.00 0.00 36 1013.2
20260503203505 15 359 3.2 6.4 0.00 0.00 0.00 37 1013.2
20260503203001 16 202 4.8 8.0 0.00 0.00 0.00 38 1013.2
20260503202500 15 256 1.6 14.5 0.00 0.00 0.00 36 1013.2
20260503201958 15 282 3.2 8.0 0.00 0.00 0.00 38 1013.4
20260503201455 15 298 4.8 9.7 0.00 0.00 0.00 36 1013.7
20260503200952 15 217 6.4 12.9 0.00 0.00 0.00 38 1013.7
20260503200449 16 173 3.2 11.3 0.00 0.00 0.00 38 1013.6
20260503195945 16 252 6.4 14.5 0.00 0.00 0.00 35 1013.5
20260503195443 16 245 4.8 17.7 0.00 0.00 0.00 34 1013.7
20260503194939 16 235 9.7 9.7 0.00 0.00 0.00 36 1013.8
20260503194437 16 220 11.3 19.3 0.00 0.00 0.00 35 1013.9
20260503193931 15 238 8.0 8.0 0.00 0.00 0.00 36 1013.9
20260503193427 15 198 4.8 12.9 0.00 0.00 0.00 36 1014.0
20260503192923 15 243 1.6 9.7 0.00 0.00 0.00 36 1014.0
20260503192420 16 311 3.2 8.0 0.00 0.00 0.00 38 1014.1
20260503191915 16 221 4.8 12.9 0.00 0.00 0.00 36 1014.1
20260503191413 15 277 6.4 9.7 0.00 0.00 0.00 38 1014.3
20260503190909 15 322 3.2 14.5 0.00 0.00 0.00 38 1014.4
20260503190407 16 253 9.7 11.3 0.00 0.00 0.00 35 1014.6
20260503185903 16 257 6.4 14.5 0.00 0.00 0.00 35 1014.6
20260503185400 16 238 6.4 9.7 0.00 0.00 0.00 39 1014.6
20260503184859 16 288 6.4 11.3 0.00 0.00 0.00 36 1014.6
20260503184356 16 324 4.8 16.1 0.00 0.00 0.00 37 1014.5
20260503183852 15 244 9.7 16.1 0.00 0.00 0.00 37 1014.6
20260503183349 15 322 4.8 6.4 0.00 0.00 0.00 38 1015.1
20260503182846 16 284 8.0 12.9 0.00 0.00 0.00 36 1015.0
20260503182345 16 272 8.0 11.3 0.00 0.00 0.00 37 1015.1
20260503181842 16 298 4.8 12.9 0.00 0.00 0.00 34 1015.0
20260503181339 15 253 6.4 9.7 0.00 0.00 0.00 39 1015.1
20260503180836 15 188 0.0 16.1 0.00 0.00 0.00 37 1015.1
20260503180334 15 244 4.8 19.3 0.00 0.00 0.00 36 1015.1
20260503175830 15 194 8.0 12.9 0.00 0.00 0.00 38 1015.2
20260503175328 15 180 3.2 9.7 0.00 0.00 0.00 39 1015.0
20260503174823 15 250 12.9 14.5 0.00 0.00 0.00 42 1015.3
20260503174322 15 258 8.0 12.9 0.00 0.00 0.00 42 1015.1
20260503173817 15 168 17.7 27.4 0.00 0.00 0.00 38 1015.4
20260503173313 15 197 4.8 17.7 0.00 0.00 0.00 39 1015.6
20260503172810 14 249 9.7 19.3 0.00 0.00 0.00 39 1015.7
20260503172308 15 259 14.5 16.1 0.00 0.00 0.00 40 1015.7
20260503171803 14 302 6.4 9.7 0.00 0.00 0.00 40 1015.7
20260503171300 14 176 9.7 20.9 0.00 0.00 0.00 39 1016.1
20260503170758 15 265 6.4 14.5 0.00 0.00 0.00 40 1016.0
20260503170254 15 200 4.8 16.1 0.00 0.00 0.00 41 1015.9
20260503160217 13 305 6.4 17.7 0.00 0.00 0.00 44 1016.4
20260503150647 12 144 6.4 11.3 0.00 0.00 0.00 41 1017.0
20260503150143 11 230 6.4 11.3 0.00 0.00 0.00 40 1016.9
20260503140107 10 249 3.2 6.4 0.00 0.00 0.00 47 1017.0
20260503131036 7 168 3.2 8.0 0.00 0.00 0.00 56 1017.3
20260503130533 7 202 3.2 14.5 0.00 0.00 0.00 55 1017.2
20260503110424 1 112 4.8 4.8 0.00 0.05 0.05 85 1016.9
20260503090321 1 106 3.2 4.8 0.00 0.05 0.05 86 1016.4
20260503081248 0 98 3.2 4.8 0.00 0.05 0.05 96 1016.4
20260503080744 0 89 3.2 4.8 0.00 0.05 0.05 96 1016.5
20260503080242 0 101 3.2 3.2 0.00 0.05 0.05 96 1016.4
20260503072718 0 115 3.2 6.4 0.00 0.05 0.05 95 1016.5
20260503072215 0 107 4.8 4.8 0.00 0.05 0.05 95 1016.5
20260503071711 0 86 1.6 3.2 0.00 0.05 0.05 95 1016.5
20260503071208 0 86 3.2 3.2 0.00 0.05 0.05 95 1016.5
20260503070705 0 107 3.2 3.2 0.00 0.05 0.05 94 1016.5
20260503070203 0 108 4.8 4.8 0.00 0.05 0.05 94 1016.4
20260503060127 1 110 3.2 3.2 0.00 0.05 0.05 92 1016.7
20260503055119 1 118 3.2 4.8 0.00 0.05 0.05 92 1016.9
20260503054615 1 112 4.8 4.8 0.00 0.05 0.05 91 1017.0
20260503054112 1 124 3.2 4.8 0.00 0.05 0.05 91 1016.8
20260503053610 1 117 3.2 4.8 0.00 0.05 0.05 91 1017.0
20260503053108 2 120 3.2 3.2 0.00 0.05 0.05 91 1016.9
20260503052604 2 117 3.2 4.8 0.00 0.05 0.05 90 1016.9
20260503052100 2 113 3.2 4.8 0.00 0.05 0.05 90 1016.9
20260503051556 2 106 3.2 4.8 0.00 0.05 0.05 89 1017.1
20260503051054 2 92 3.2 4.8 0.00 0.05 0.05 89 1017.0
20260503050549 2 106 3.2 4.8 0.00 0.05 0.05 89 1017.1
20260503050047 3 106 3.2 4.8 0.00 0.05 0.05 89 1017.2
20260503045544 3 109 4.8 4.8 0.00 0.05 0.05 89 1017.1
20260503045041 3 102 3.2 4.8 0.00 0.05 0.05 89 1017.2
20260503044538 3 114 4.8 4.8 0.00 0.05 0.05 88 1017.1
20260503044036 3 120 3.2 4.8 0.00 0.05 0.05 89 1017.1
20260503043531 3 117 3.2 4.8 0.00 0.05 0.05 88 1017.2
20260503043028 3 117 3.2 4.8 0.00 0.05 0.05 88 1017.0
20260503042525 3 117 3.2 4.8 0.00 0.05 0.05 88 1017.1
20260503042021 3 99 3.2 4.8 0.00 0.05 0.05 88 1017.3
20260503041518 3 110 3.2 4.8 0.00 0.05 0.05 87 1017.0
20260503041016 3 116 3.2 4.8 0.00 0.05 0.05 87 1017.1
20260503040513 3 118 3.2 4.8 0.00 0.05 0.05 87 1017.2
20260503040011 3 110 3.2 6.4 0.00 0.05 0.05 87 1017.2
20260503035507 3 103 3.2 4.8 0.00 0.05 0.05 87 1017.1
20260503035005 3 101 4.8 6.4 0.00 0.05 0.05 87 1017.2
20260503034502 3 104 4.8 4.8 0.00 0.05 0.05 87 1017.2
20260503033959 3 104 3.2 4.8 0.00 0.05 0.05 87 1017.3
20260503033456 3 114 3.2 4.8 0.00 0.05 0.05 87 1017.3
20260503032954 3 103 3.2 4.8 0.00 0.05 0.05 87 1017.1
20260503032452 3 89 4.8 4.8 0.00 0.05 0.05 86 1017.3
20260503031949 3 86 3.2 4.8 0.00 0.05 0.05 86 1017.4
20260503031447 3 87 3.2 3.2 0.00 0.05 0.05 86 1017.3
20260503030943 3 87 3.2 4.8 0.00 0.05 0.05 86 1017.3
20260503030440 3 98 3.2 4.8 0.00 0.05 0.05 85 1017.4
20260503025937 3 109 3.2 3.2 0.00 0.05 0.05 85 1017.4
20260503025434 3 102 3.2 4.8 0.00 0.05 0.05 85 1017.4
20260503024932 3 103 3.2 4.8 0.00 0.05 0.05 84 1017.6
20260503024428 3 93 3.2 4.8 0.00 0.05 0.05 84 1017.6
20260503023925 3 95 3.2 4.8 0.00 0.05 0.05 84 1017.7
20260503023422 3 105 3.2 3.2 0.00 0.05 0.05 83 1017.7
20260503022919 3 103 3.2 3.2 0.00 0.05 0.05 83 1017.7
20260503022420 3 92 3.2 3.2 0.00 0.05 0.05 83 1017.7
20260503021915 3 95 3.2 3.2 0.00 0.05 0.05 83 1017.6
20260503021412 3 116 4.8 4.8 0.00 0.05 0.05 82 1017.8
20260503020909 3 101 3.2 3.2 0.00 0.05 0.05 81 1017.7
20260503020407 3 106 3.2 3.2 0.00 0.05 0.05 80 1017.7
20260503015903 3 103 3.2 3.2 0.00 0.05 0.05 80 1017.6
20260503015400 3 93 3.2 4.8 0.00 0.05 0.05 79 1017.8
20260503014856 3 111 4.8 4.8 0.00 0.05 0.05 79 1017.4